FW1718 Weather Reports


time (UTC)temp
C
wind
direction
speed
KPH
gust
KPH
rain 1hr
cm
rain 24hr
cm
rain mn
cm
humidity
%
barometer
mb
20190426140726 17 82 0.0 0.0 0.00 0.00 0.00 95 1015.1
20190426140223 17 103 0.0 0.0 0.00 0.00 0.00 95 1015.3
20190426135718 17 102 0.0 0.0 0.00 0.00 0.00 95 1015.2
20190426135208 17 104 0.0 0.0 0.00 0.00 0.00 95 1015.2
20190426134659 17 84 0.0 0.0 0.00 0.00 0.00 95 1015.4
20190426134159 17 104 0.0 0.0 0.00 0.00 0.00 94 1015.5
20190426133653 17 84 0.0 0.0 0.00 0.00 0.00 95 1015.2
20190426133146 17 81 0.0 0.0 0.00 0.00 0.00 95 1015.4
20190426132640 17 89 0.0 0.0 0.00 0.00 0.00 94 1015.4
20190426132129 18 104 0.0 0.0 0.00 0.00 0.00 94 1015.5
20190426131623 18 90 0.0 0.0 0.00 0.00 0.00 94 1015.4
20190426131116 18 93 0.0 0.0 0.00 0.00 0.00 93 1015.4
20190426130610 18 75 0.0 0.0 0.00 0.00 0.00 93 1015.4
20190426130059 18 52 0.0 0.0 0.00 0.00 0.00 94 1015.4
20190426125550 18 91 0.0 0.0 0.00 0.00 0.00 94 1015.5
20190426125043 18 92 0.0 0.0 0.00 0.00 0.00 93 1015.5
20190426124536 18 88 0.0 0.0 0.00 0.00 0.00 93 1015.5
20190426124035 18 89 0.0 0.0 0.00 0.00 0.00 93 1015.5
20190426123528 18 78 0.0 0.0 0.00 0.00 0.00 93 1015.4
20190426123022 18 89 0.0 0.0 0.00 0.00 0.00 93 1015.5
20190426122515 18 89 0.0 0.0 0.00 0.00 0.00 93 1015.4
20190426122012 18 93 0.0 0.0 0.00 0.00 0.00 93 1015.6
20190426121505 18 85 0.0 0.0 0.00 0.00 0.00 93 1015.6
20190426120957 18 102 0.0 0.0 0.00 0.00 0.00 92 1015.6
20190426120449 18 78 0.0 0.0 0.00 0.00 0.00 93 1015.7
20190426115940 18 93 0.0 0.0 0.00 0.00 0.00 92 1015.7
20190426115432 18 93 0.0 0.0 0.00 0.00 0.00 92 1015.7
20190426114925 18 89 0.0 0.0 0.00 0.00 0.00 92 1015.7
20190426114418 18 88 0.0 0.0 0.00 0.00 0.00 91 1015.8
20190426113910 19 94 0.0 0.0 0.00 0.00 0.00 90 1015.9
20190426113401 19 92 0.0 0.0 0.00 0.00 0.00 89 1015.9
20190426112855 19 72 0.0 0.0 0.00 0.00 0.00 89 1015.9
20190426112349 19 99 0.0 0.0 0.00 0.00 0.00 88 1015.9
20190426111848 20 90 0.0 0.0 0.00 0.00 0.00 87 1015.8
20190426111340 20 104 0.0 0.0 0.00 0.00 0.00 87 1015.7
20190426110833 20 86 0.0 0.0 0.00 0.00 0.00 86 1015.6
20190426110328 20 91 0.0 0.0 0.00 0.00 0.00 86 1015.6
20190426105814 20 93 0.0 0.0 0.00 0.00 0.00 85 1015.7
20190426105307 20 89 0.0 3.2 0.00 0.00 0.00 84 1015.4
20190426104801 20 92 0.0 3.2 0.00 0.00 0.00 83 1015.5
20190426104252 20 97 0.0 0.0 0.00 0.00 0.00 83 1015.6
20190426103749 20 85 0.0 0.0 0.00 0.00 0.00 83 1015.3
20190426103241 20 85 0.0 3.2 0.00 0.00 0.00 82 1015.5
20190426102733 20 90 3.2 3.2 0.00 0.00 0.00 82 1015.5
20190426102223 20 82 0.0 0.0 0.00 0.00 0.00 81 1015.4
20190426101713 20 76 0.0 0.0 0.00 0.00 0.00 81 1015.6
20190426101209 20 79 0.0 0.0 0.00 0.00 0.00 81 1015.5
20190426100701 20 89 0.0 0.0 0.00 0.00 0.00 80 1015.6
20190426100154 20 89 0.0 0.0 0.00 0.00 0.00 80 1015.5
20190426095644 21 66 0.0 0.0 0.00 0.00 0.00 79 1015.5
20190426095135 21 89 0.0 0.0 0.00 0.00 0.00 78 1015.2
20190426094628 21 99 0.0 0.0 0.00 0.00 0.00 77 1015.5
20190426094130 21 68 0.0 0.0 0.00 0.00 0.00 77 1015.3
20190426093547 21 106 0.0 0.0 0.00 0.00 0.00 77 1015.5
20190426093040 21 87 0.0 0.0 0.00 0.00 0.00 77 1015.5
20190426092531 20 72 0.0 0.0 0.00 0.00 0.00 77 1015.6
20190426092030 21 87 0.0 0.0 0.00 0.00 0.00 77 1015.3
20190426091527 21 86 0.0 0.0 0.00 0.00 0.00 77 1015.2
20190426091014 21 91 0.0 0.0 0.00 0.00 0.00 77 1015.2
20190426090505 21 88 0.0 0.0 0.00 0.00 0.00 78 1015.1
20190426090005 21 84 0.0 0.0 0.00 0.00 0.00 76 1015.0
20190426085457 21 61 0.0 0.0 0.00 0.00 0.00 76 1015.1
20190426084949 21 73 0.0 0.0 0.00 0.00 0.00 75 1015.0
20190426084441 21 75 0.0 0.0 0.00 0.00 0.00 75 1015.1
20190426083941 22 86 0.0 3.2 0.00 0.00 0.00 74 1015.0
20190426083430 22 100 0.0 3.2 0.00 0.00 0.00 74 1014.9
20190426082923 22 80 0.0 3.2 0.00 0.00 0.00 74 1015.0
20190426082416 22 49 0.0 8.0 0.00 0.00 0.00 73 1014.8
20190426081914 22 74 1.6 8.0 0.00 0.00 0.00 72 1014.8
20190426081407 22 73 0.0 8.0 0.00 0.00 0.00 72 1014.7
20190426080858 22 65 3.2 8.0 0.00 0.00 0.00 73 1014.8
20190426080350 22 101 0.0 8.0 0.00 0.00 0.00 72 1014.6
20190426075849 22 87 0.0 3.2 0.00 0.00 0.00 73 1014.4
20190426075342 22 104 0.0 8.0 0.00 0.00 0.00 73 1014.3
20190426074833 22 93 0.0 8.0 0.00 0.00 0.00 73 1014.4
20190426074325 22 84 0.0 8.0 0.00 0.00 0.00 72 1014.4
20190426073822 23 94 0.0 8.0 0.00 0.00 0.00 72 1014.4
20190426073313 23 89 0.0 8.0 0.00 0.00 0.00 72 1014.6
20190426072806 23 78 0.0 8.0 0.00 0.00 0.00 72 1014.6
20190426072258 23 96 0.0 12.9 0.00 0.00 0.00 71 1014.5
20190426071751 23 80 0.0 12.9 0.00 0.00 0.00 70 1014.4
20190426071250 23 86 0.0 12.9 0.00 0.00 0.00 69 1014.4
20190426070743 24 85 0.0 12.9 0.00 0.00 0.00 69 1014.4
20190426070209 24 48 0.0 8.0 0.00 0.00 0.00 68 1014.6
20190426065709 25 72 0.0 8.0 0.00 0.00 0.00 68 1014.5
20190426065202 25 29 0.0 8.0 0.00 0.00 0.00 69 1014.4
20190426064654 25 115 1.6 12.9 0.00 0.00 0.00 66 1014.4
20190426064147 25 30 0.0 12.9 0.00 0.00 0.00 67 1014.3
20190426063645 25 100 3.2 12.9 0.00 0.00 0.00 66 1014.3
20190426063140 25 80 0.0 12.9 0.00 0.00 0.00 67 1014.3
20190426062631 25 55 1.6 12.9 0.00 0.00 0.00 67 1014.3
20190426062123 26 64 0.0 12.9 0.00 0.00 0.00 67 1014.2
20190426061623 26 82 1.6 16.1 0.00 0.00 0.00 66 1014.2
20190426061114 26 123 0.0 16.1 0.00 0.00 0.00 64 1014.0
20190426060606 26 87 0.0 8.0 0.00 0.00 0.00 64 1014.1
20190426060058 26 68 0.0 8.0 0.00 0.00 0.00 65 1014.1
20190426055554 27 95 3.2 3.2 0.00 0.00 0.00 64 1014.0
20190426055047 27 43 0.0 3.2 0.00 0.00 0.00 60 1013.7
20190426054543 27 84 0.0 8.0 0.00 0.00 0.00 58 1013.9
20190426054030 27 108 3.2 8.0 0.00 0.00 0.00 60 1013.7
20190426053529 27 86 0.0 0.0 0.00 0.00 0.00 60 1013.9
20190426053021 27 86 0.0 3.2 0.00 0.00 0.00 63 1014.1
20190426052515 27 83 0.0 3.2 0.00 0.00 0.00 60 1013.9
20190426052008 27 62 0.0 3.2 0.00 0.00 0.00 59 1014.1
20190426051503 29 100 0.0 8.0 0.00 0.00 0.00 58 1013.9
20190426051000 29 109 0.0 8.0 0.00 0.00 0.00 58 1013.9
20190426050448 29 136 0.0 3.2 0.00 0.00 0.00 57 1013.9
20190426045939 29 45 0.0 3.2 0.00 0.00 0.00 57 1013.9
20190426045440 27 51 0.0 0.0 0.00 0.00 0.00 59 1013.9
20190426044933 27 70 0.0 0.0 0.00 0.00 0.00 59 1013.8
20190426044425 27 82 0.0 3.2 0.00 0.00 0.00 60 1013.7
20190426043919 27 87 0.0 3.2 0.00 0.00 0.00 61 1013.8
20190426043417 28 38 0.0 0.0 0.00 0.00 0.00 61 1013.7
20190426042910 28 93 0.0 8.0 0.00 0.00 0.00 58 1014.0
20190426042403 28 352 0.0 8.0 0.00 0.00 0.00 58 1013.9
20190426041856 28 152 0.0 3.2 0.00 0.00 0.00 56 1014.0
20190426041332 28 19 0.0 3.2 0.00 0.00 0.00 55 1014.0
20190426040824 28 98 0.0 3.2 0.00 0.00 0.00 57 1013.9
20190426040317 27 102 0.0 3.2 0.00 0.00 0.00 60 1014.1
20190426035817 28 93 0.0 3.2 0.00 0.00 0.00 60 1014.1
20190426035310 28 144 1.6 3.2 0.00 0.00 0.00 59 1014.2
20190426034801 28 57 1.6 8.0 0.00 0.00 0.00 58 1014.3
20190426034252 28 299 3.2 8.0 0.00 0.00 0.00 60 1014.4
20190426033753 27 88 0.0 3.2 0.00 0.00 0.00 58 1014.3
20190426033244 27 74 0.0 3.2 0.00 0.00 0.00 60 1014.5
20190426032737 27 150 0.0 3.2 0.00 0.00 0.00 62 1014.5
20190426032229 26 65 0.0 3.2 0.00 0.00 0.00 63 1014.6
20190426031728 26 112 0.0 3.2 0.00 0.00 0.00 64 1014.6
20190426031221 26 10 0.0 3.2 0.00 0.00 0.00 66 1014.6
20190426030714 26 292 3.2 3.2 0.00 0.00 0.00 64 1014.8
20190426030205 26 94 0.0 3.2 0.00 0.00 0.00 64 1014.8
20190426025701 26 2 1.6 3.2 0.00 0.00 0.00 63 1014.8
20190426025155 26 74 0.0 8.0 0.00 0.00 0.00 65 1015.0
20190426024648 26 80 0.0 8.0 0.00 0.00 0.00 64 1014.9
20190426024141 26 72 3.2 3.2 0.00 0.00 0.00 63 1015.0
20190426023640 26 80 0.0 3.2 0.00 0.00 0.00 64 1015.1
20190426023130 26 66 0.0 3.2 0.00 0.00 0.00 62 1015.3
20190426022622 26 315 1.6 3.2 0.00 0.00 0.00 65 1015.1
20190426022114 26 35 0.0 3.2 0.00 0.00 0.00 65 1015.5
20190426021613 26 36 0.0 3.2 0.00 0.00 0.00 64 1015.4
20190426021106 26 12 0.0 3.2 0.00 0.00 0.00 65 1015.6
20190426020559 26 122 0.0 3.2 0.00 0.00 0.00 65 1015.7
20190426020053 26 60 0.0 3.2 0.00 0.00 0.00 65 1015.8
20190426015549 26 81 0.0 3.2 0.00 0.00 0.00 66 1015.9
20190426015040 26 336 0.0 3.2 0.00 0.00 0.00 67 1015.9
20190426014532 26 81 0.0 3.2 0.00 0.00 0.00 66 1016.2
20190426014023 26 165 0.0 0.0 0.00 0.00 0.00 67 1016.2
20190426013520 25 114 0.0 8.0 0.00 0.00 0.00 66 1016.4
20190426013012 25 7 0.0 8.0 0.00 0.00 0.00 67 1016.3
20190426012505 25 43 0.0 8.0 0.00 0.00 0.00 68 1016.6
20190426011957 26 83 0.0 3.2 0.00 0.00 0.00 66 1016.4
20190426011456 25 88 0.0 3.2 0.00 0.00 0.00 66 1016.7
20190426010948 25 345 0.0 3.2 0.00 0.00 0.00 68 1016.7
20190426010440 25 20 0.0 3.2 0.00 0.00 0.00 69 1016.7
20190426005931 25 148 0.0 3.2 0.00 0.00 0.00 69 1016.7
20190426005430 25 102 0.0 8.0 0.00 0.00 0.00 69 1017.0
20190426004923 25 80 0.0 8.0 0.00 0.00 0.00 69 1017.1
20190426004417 25 104 0.0 3.2 0.00 0.00 0.00 70 1017.0
20190426003905 25 36 0.0 3.2 0.00 0.00 0.00 69 1017.3
20190426003404 25 171 0.0 3.2 0.00 0.00 0.00 69 1017.2
20190426002855 25 184 1.6 3.2 0.00 0.00 0.00 70 1017.4
20190426002347 25 322 0.0 3.2 0.00 0.00 0.00 70 1017.3
20190426001840 25 117 0.0 3.2 0.00 0.00 0.00 71 1017.4
20190426001339 25 191 0.0 3.2 0.00 0.00 0.00 71 1017.5
20190426000836 25 8 0.0 3.2 0.00 0.00 0.00 71 1017.6
20190426000328 25 1 0.0 3.2 0.00 0.00 0.00 72 1017.6
20190425235819 25 60 0.0 3.2 0.00 0.00 0.00 70 1017.7
20190425235317 24 226 1.6 8.0 0.00 0.00 0.00 71 1017.6
20190425234810 23 56 0.0 8.0 0.00 0.00 0.00 71 1017.8
20190425234302 23 105 0.0 8.0 0.00 0.00 0.00 72 1017.9
20190425233755 23 339 0.0 8.0 0.00 0.00 0.00 74 1017.8
20190425233255 23 197 0.0 3.2 0.00 0.00 0.00 74 1017.9
20190425232748 23 108 0.0 3.2 0.00 0.00 0.00 75 1018.0
20190425232240 23 103 1.6 8.0 0.00 0.00 0.00 73 1018.0
20190425231732 23 96 0.0 8.0 0.00 0.00 0.00 75 1018.3
20190425231233 23 122 0.0 8.0 0.00 0.00 0.00 73 1017.9
20190425230725 23 108 0.0 8.0 0.00 0.00 0.00 73 1018.0
20190425230216 23 186 4.8 8.0 0.00 0.00 0.00 75 1018.1
20190425225710 23 227 4.8 8.0 0.00 0.00 0.00 75 1018.2
20190425225211 22 106 0.0 8.0 0.00 0.00 0.00 78 1018.2
20190425224701 22 353 0.0 3.2 0.00 0.00 0.00 78 1018.1
20190425224153 22 80 0.0 3.2 0.00 0.00 0.00 80 1017.9
20190425223645 22 69 0.0 3.2 0.00 0.00 0.00 81 1018.1
20190425223145 21 223 3.2 3.2 0.00 0.00 0.00 81 1018.1
20190425222640 21 97 0.0 3.2 0.00 0.00 0.00 82 1018.2
20190425222129 21 120 0.0 0.0 0.00 0.00 0.00 82 1018.1
20190425221623 20 94 0.0 3.2 0.00 0.00 0.00 82 1017.9
20190425221055 20 133 0.0 3.2 0.00 0.00 0.00 81 1018.0
20190425220548 20 73 0.0 3.2 0.00 0.00 0.00 86 1018.0
20190425220041 20 100 0.0 0.0 0.00 0.00 0.00 89 1017.9
20190425215539 18 65 0.0 0.0 0.00 0.00 0.00 91 1018.1
20190425215033 18 95 0.0 0.0 0.00 0.00 0.00 94 1017.8
20190425214526 18 123 0.0 0.0 0.00 0.00 0.00 95 1017.9
20190425214018 18 86 0.0 0.0 0.00 0.00 0.00 95 1017.8
20190425213519 18 90 0.0 0.0 0.00 0.00 0.00 96 1017.8
20190425213011 17 101 0.0 0.0 0.00 0.00 0.00 96 1017.6
20190425212509 17 90 0.0 0.0 0.00 0.00 0.00 96 1017.7
20190425211957 17 83 0.0 0.0 0.00 0.00 0.00 97 1017.7
20190425211452 17 78 0.0 0.0 0.00 0.00 0.00 97 1017.6
20190425210945 17 88 0.0 0.0 0.00 0.00 0.00 97 1017.5
20190425210440 17 92 0.0 0.0 0.00 0.00 0.00 97 1017.3
20190425205930 17 97 0.0 0.0 0.00 0.00 0.00 97 1017.2
20190425205429 17 96 0.0 0.0 0.00 0.00 0.00 97 1017.2
20190425204922 17 94 0.0 0.0 0.00 0.00 0.00 97 1017.2
20190425204414 17 101 0.0 0.0 0.00 0.00 0.00 97 1017.2
20190425203909 17 84 0.0 0.0 0.00 0.00 0.00 97 1017.0
20190425203409 17 96 0.0 0.0 0.00 0.00 0.00 97 1017.3
20190425202901 17 83 0.0 0.0 0.00 0.00 0.00 97 1017.1
20190425202354 17 96 0.0 0.0 0.00 0.00 0.00 97 1016.9
20190425201847 17 85 0.0 0.0 0.00 0.00 0.00 97 1016.7
20190425201349 17 71 0.0 0.0 0.00 0.00 0.00 97 1016.9
20190425200841 17 84 0.0 0.0 0.00 0.00 0.00 97 1016.6
20190425200334 17 90 0.0 0.0 0.00 0.00 0.00 97 1016.7
20190425195827 17 80 0.0 0.0 0.00 0.00 0.00 97 1016.6
20190425195317 17 81 0.0 0.0 0.00 0.00 0.00 97 1016.7
20190425194809 17 71 0.0 0.0 0.00 0.00 0.00 97 1016.6
20190425194303 17 77 0.0 0.0 0.00 0.00 0.00 97 1016.6
20190425193755 17 73 0.0 0.0 0.00 0.00 0.00 97 1016.5
20190425193251 17 67 0.0 0.0 0.00 0.00 0.00 97 1016.5
20190425192745 17 87 0.0 0.0 0.00 0.00 0.00 97 1016.1
20190425192240 17 87 0.0 0.0 0.00 0.00 0.00 97 1016.1
20190425191733 17 85 0.0 0.0 0.00 0.00 0.00 97 1016.0
20190425191229 17 59 0.0 0.0 0.00 0.00 0.00 97 1016.3
20190425190727 17 89 0.0 0.0 0.00 0.00 0.00 97 1016.1
20190425190215 17 98 0.0 0.0 0.00 0.00 0.00 97 1016.0
20190425185711 17 108 0.0 0.0 0.00 0.00 0.00 97 1016.0
20190425185209 17 68 0.0 0.0 0.00 0.00 0.00 97 1016.1
20190425184701 17 93 0.0 0.0 0.00 0.00 0.00 97 1016.0
20190425184153 17 88 0.0 0.0 0.00 0.00 0.00 97 1015.9
20190425183646 17 95 0.0 0.0 0.00 0.00 0.00 97 1015.8
20190425183141 17 67 0.0 0.0 0.00 0.00 0.00 97 1016.0
20190425182634 17 95 0.0 0.0 0.00 0.00 0.00 96 1015.9
20190425182126 17 98 0.0 0.0 0.00 0.00 0.00 96 1016.0
20190425181618 17 100 0.0 0.0 0.00 0.00 0.00 96 1016.1
20190425181118 17 98 0.0 0.0 0.00 0.00 0.00 96 1016.3
20190425180609 17 97 0.0 0.0 0.00 0.00 0.00 96 1016.2
20190425180101 17 104 0.0 0.0 0.00 0.00 0.00 96 1016.5
20190425175553 17 82 0.0 0.0 0.00 0.00 0.00 96 1016.3
20190425175052 17 85 0.0 0.0 0.00 0.00 0.00 96 1016.4
20190425174544 17 88 0.0 0.0 0.00 0.00 0.00 96 1016.5
20190425174035 17 101 0.0 0.0 0.00 0.00 0.00 96 1016.6
20190425173528 17 100 0.0 0.0 0.00 0.00 0.00 96 1016.6
20190425173028 17 73 0.0 0.0 0.00 0.00 0.00 96 1016.7
20190425172520 17 92 0.0 0.0 0.00 0.00 0.00 95 1016.7
20190425172012 17 95 0.0 0.0 0.00 0.00 0.00 95 1016.9
20190425171504 17 102 0.0 0.0 0.00 0.00 0.00 95 1017.1
20190425170959 17 109 0.0 0.0 0.00 0.00 0.00 95 1017.0
20190425170452 17 94 0.0 0.0 0.00 0.00 0.00 95 1017.2
20190425165945 17 86 0.0 0.0 0.00 0.00 0.00 95 1017.0
20190425165437 17 101 0.0 0.0 0.00 0.00 0.00 95 1017.0
20190425164937 17 124 0.0 0.0 0.00 0.00 0.00 95 1017.0
20190425164429 17 92 0.0 0.0 0.00 0.00 0.00 95 1017.1
20190425163922 17 72 0.0 0.0 0.00 0.00 0.00 95 1017.2
20190425163413 17 67 0.0 0.0 0.00 0.00 0.00 95 1017.3
20190425162904 17 105 0.0 0.0 0.00 0.00 0.00 95 1017.2
20190425162358 17 92 0.0 0.0 0.00 0.00 0.00 95 1017.4
20190425161850 17 85 0.0 0.0 0.00 0.00 0.00 95 1017.6
20190425161343 17 127 0.0 0.0 0.00 0.00 0.00 95 1017.6
20190425160810 17 105 0.0 0.0 0.00 0.00 0.00 96 1017.5
20190425160302 17 48 0.0 0.0 0.00 0.00 0.00 96 1017.7
20190425155753 17 86 0.0 0.0 0.00 0.00 0.00 96 1017.6
20190425155254 17 93 0.0 0.0 0.00 0.00 0.00 96 1017.6
20190425154746 17 91 0.0 0.0 0.00 0.00 0.00 96 1017.6
20190425154239 17 94 0.0 0.0 0.00 0.00 0.00 96 1017.5
20190425153731 17 80 0.0 0.0 0.00 0.00 0.00 96 1017.4
20190425153229 17 77 0.0 0.0 0.00 0.00 0.00 96 1017.6
20190425152723 17 67 0.0 0.0 0.00 0.00 0.00 96 1017.6
20190425152215 17 88 0.0 0.0 0.00 0.00 0.00 96 1017.4
20190425151709 17 87 0.0 0.0 0.00 0.00 0.00 96 1017.6
20190425151209 17 92 0.0 0.0 0.00 0.00 0.00 96 1017.6
20190425150659 17 87 0.0 0.0 0.00 0.00 0.00 96 1017.6
20190425150155 17 86 0.0 0.0 0.00 0.00 0.00 96 1017.8
20190425145643 18 91 0.0 0.0 0.00 0.00 0.00 96 1017.7
20190425145148 18 156 0.0 0.0 0.00 0.00 0.00 96 1017.8
20190425144635 18 88 0.0 0.0 0.00 0.00 0.00 96 1017.9
20190425143620 18 352 0.0 0.0 0.00 0.00 0.00 96 1017.9
20190425143119 18 88 0.0 0.0 0.00 0.00 0.00 96 1017.9
20190425142612 17 113 0.0 0.0 0.00 0.00 0.00 96 1017.9
20190425142104 17 94 0.0 0.0 0.00 0.00 0.00 96 1017.9
20190425141557 17 75 0.0 0.0 0.00 0.00 0.00 95 1017.9
20190425141052 17 90 0.0 0.0 0.00 0.00 0.00 95 1018.0